Location: Beugnon
(47.6222°N, 3.7850°E)
Time: 22:35:33
(UTC+00:00)

COSMOS 2406 - Pass Details

Date: 09 April 2020
Orbit: 842 x 865 km, 71.0° (Epoch: 02 June)

Event Time Altitude Azimuth Distance (km) Brightness Sun altitude
Exits shadow 20:55:02 33° 188° (S) 1,385 4.0 -22.8°
Maximum altitude 20:57:36 70° 114° (ESE) 902 3.1 -23.1°
Drops below altitude 10° 21:03:18 10° 31° (NNE) 2,491 5.8 -23.8°
Sets 21:05:46 0° 29° (NNE) 3,435 6.6 -24.1°
